This is the latest recevied weather packets stored in our database for station/object IZ3MEZ-13. If no packets are shown the sender has not sent any weather packets the latest 10 day(s).
| Time | Temp. | Humidity | Pressure | Rain* | Wind** | Luminosity | Snow |
|---|---|---|---|---|---|---|---|
| 1778145926 | 20° C | 75% | 1014.8 hPa | 0 mm | - | 370 W/m² | - |
| 1778145321 | 20.56° C | 75% | 1014.8 hPa | 0 mm | - | 168 W/m² | - |
| 1778144718 | 19.44° C | 80% | 1014.9 hPa | 0 mm | - | 157 W/m² | - |
| 1778144133 | 19.44° C | 80% | 1014.8 hPa | 0 mm | - | 95 W/m² | - |
| 1778143530 | 18.89° C | 84% | 1014.7 hPa | 0 mm | - | 137 W/m² | - |
| 1778142925 | 17.78° C | 85% | 1014.6 hPa | 0 mm | - | 66 W/m² | - |
| 1778142322 | 18.33° C | 86% | 1014.7 hPa | 0 mm | - | 65 W/m² | - |
| 1778141737 | 18.33° C | 89% | 1014.7 hPa | 0 mm | - | 173 W/m² | - |
| 1778141132 | 17.22° C | 91% | 1014.7 hPa | 0 mm | - | 111 W/m² | - |
| 1778140529 | 16.67° C | 92% | 1014.6 hPa | 0 mm | - | 60 W/m² | - |
| 1778139924 | 16.11° C | 92% | 1014.6 hPa | 0 mm | - | 54 W/m² | - |
| 1778139320 | 16.11° C | 92% | 1014.5 hPa | 0 mm | - | 61 W/m² | - |
| 1778138735 | 16.67° C | 93% | 1014.4 hPa | 0 mm | - | 111 W/m² | - |
| 1778138132 | 16.11° C | 94% | 1014.5 hPa | 0 mm | - | 148 W/m² | - |
| 1778137527 | 15.56° C | 94% | 1014.3 hPa | 0 mm | - | 106 W/m² | - |
| 1778136924 | 15.56° C | 95% | 1014.3 hPa | 0 mm | - | 104 W/m² | - |
| 1778136319 | 15° C | 95% | 1014.3 hPa | 0 mm | - | 121 W/m² | - |
| 1778135736 | 15° C | 96% | 1014.2 hPa | 0 mm | - | 97 W/m² | - |
| 1778135131 | 14.44° C | 96% | 1014.3 hPa | 0 mm | - | 81 W/m² | - |
| 1778134528 | 14.44° C | 96% | 1014.1 hPa | 0 mm | - | 39 W/m² | - |
| 1778133923 | 13.89° C | 96% | 1014.1 hPa | 0 mm | - | 35 W/m² | - |
| 1778133318 | 13.89° C | 96% | 1014 hPa | 0 mm | - | 31 W/m² | - |
| 1778132735 | 13.89° C | 96% | 1013.9 hPa | 0 mm | - | 29 W/m² | - |
| 1778132130 | 13.33° C | 96% | 1013.8 hPa | 0 mm | - | 25 W/m² | - |
| 1778131525 | 13.33° C | 96% | 1013.6 hPa | 0 mm | - | 22 W/m² | - |
* Rain latest hour (hover to see other rain measurements)
** Current wind speed in m/s (hover to see current wind gust speed)